Regional Weather Roundup
Issued by NWS

Home | Current Version | Previous Version | Text Only | Print | Product List | Glossary Off
Versions: 1 2 3 4 5 6 7 8 9 10 11 12 13 14 15 16 17 18 19 20 21 22 23 24 25 26 27 28 29 30 31 32 33 34 35 36 37 38 39 40 41 42 43 44 45 46 47 48 49 50

000
ASUS45 KSLC 301610
RWRUT

UTAH REGIONAL WEATHER ROUNDUP
NATIONAL WEATHER SERVICE SALT LAKE CITY UT
1000 AM MDT WED JUL 30 2014

UTZ001>011-023>025-301700-

NORTHERN UTAH

CITY           SKY/WX    TMP DP  RH WIND       PRES   REMARKS
HILL AFB       LGT RAIN  64  61  88 W8        30.24S
LOGAN          CLOUDY    65  61  87 N6        30.25R
OGDEN          LGT RAIN  67  62  84 W9        30.21S
PROVO AIRPORT  PTSUNNY   70  57  64 S6        30.23S
SALT LAKE CITY PTSUNNY   68  62  81 N8        30.20S
VERNAL         CLOUDY    67  59  75 CALM      30.26S
WENDOVER         N/A     75  52  43 NE8       30.22S
HEBER CITY     CLOUDY    63  57  82 N3        30.27F
WEST JORDAN    CLOUDY    70  66  88 CALM      30.23R

$$

UTZ012>022-026-027-301700-

SOUTHERN UTAH

CITY           SKY/WX    TMP DP  RH WIND       PRES   REMARKS
BRYCE CANYON     N/A     64  52  64 SW3       30.39S
CEDAR CITY       N/A     68  57  68 CALM      30.26S
MILFORD          N/A     73  57  57 NE8       30.24R
MOAB/CYNLANDS  SUNNY     71  59  65 CALM      30.18S
PRICE            N/A     70  52  52 S5        30.26F
ST GEORGE        N/A     84  54  34 SE3       30.08S
KANAB            N/A     79  52  38 NW3       30.23

$$

REGIONAL REPORTS     COLORADO/ARIZONA

CITY           SKY/WX    TMP DP  RH WIND       PRES   REMARKS
CRAIG, CO      CLOUDY    54  32  43 SW8       30.31S
GRAND JUNCTION SUNNY     69  56  62 VRB6      30.22S
RIFLE          CLOUDY    65  55  70 E3        30.26F
MONTROSE       SUNNY     69  56  62 NW6       30.27F
CORTEZ         SUNNY     75  49  39 E6        30.24F
PAGE, AZ         N/A     82  52  35 NE3       30.15S
GRAND CANYON     N/A     76  50  40 W8        30.32F
KINGMAN          N/A     88  49  25 CALM      30.08S
FLAGSTAFF        N/A     73  48  41 CALM      30.36S

$$

REGIONAL REPORTS    NEVADA/IDAHO/WYOMING

CITY           SKY/WX    TMP DP  RH WIND       PRES   REMARKS
LAS VEGAS, NV    N/A     92  54  27 E8        29.96S HX  90
ELY              N/A     63  53  70 CALM      30.34S
ELKO             N/A     71  48  43 CALM      30.28S
POCATELLO, ID  MOSUNNY   69  57  65 SW6       30.26S
BURLEY           N/A     71  53  52 CALM      30.22F
EVANSTON, WY   CLOUDY    55  53  93 E10       30.37S
ROCK SPRINGS   CLOUDY    59  51  75 E16       30.37S

$$



USA.gov is the U.S. government's official web portal to all federal, state and local government web resources and services.